DW8297 Weather Reports


time (UTC)temp
F
wind
direction
speed
knots
gust
knots
rain 1hr
in
rain 24hr
in
rain mn
in
humidity
%
barometer
mb
20260505122500 -39 15 0.0 6.1 0.00 0.00 0.00 88 1015.9
20260505121732 -39 8 0.0 0.0 0.00 0.00 0.00 88 1015.7
20260505115500 -39 196 0.0 0.0 0.00 0.00 0.00 88 1015.7
20260505113954 -39 28 0.0 0.0 0.00 0.00 0.00 88 1015.7
20260505112450 -39 19 0.0 0.0 0.00 0.00 0.00 88 1015.6
20260505110948 -39 16 0.0 0.0 0.00 0.00 0.00 88 1015.3
20260505100938 -39 52 0.0 0.0 0.00 0.00 0.00 88 1015.0
20260505095434 -39 53 0.0 0.0 0.00 0.00 0.00 88 1014.9
20260505093933 -39 53 0.0 0.0 0.00 0.00 0.00 88 1014.7
20260505092433 -39 45 0.0 0.0 0.00 0.00 0.00 88 1014.7
20260505091702 -39 45 0.0 1.7 0.00 0.00 0.00 88 1014.7
20260505085426 -39 49 0.0 1.7 0.00 0.00 0.00 88 1014.8
20260505083922 -39 61 0.0 1.7 0.00 0.00 0.00 88 1014.7
20260505082422 -39 26 0.0 1.7 0.00 0.00 0.00 88 1014.8
20260505080910 -39 26 0.0 3.5 0.00 0.00 0.00 88 1014.8
20260505075406 -39 27 0.0 0.9 0.00 0.00 0.00 88 1014.6
20260505073905 -39 27 0.0 1.7 0.00 0.00 0.00 88 1014.7
20260505072401 -39 27 0.0 0.0 0.00 0.00 0.00 88 1014.7
20260505070855 -39 27 0.0 0.0 0.00 0.00 0.00 88 1014.7
20260505065350 -39 27 0.0 0.0 0.00 0.00 0.00 88 1014.7
20260505063844 -39 27 0.0 0.0 0.00 0.00 0.00 88 1014.7
20260505062336 -39 27 0.0 0.0 0.00 0.00 0.00 88 1014.7
20260505060827 -39 27 0.0 0.0 0.00 0.00 0.00 88 1014.7
20260505055321 -39 27 0.0 0.0 0.00 0.00 0.00 88 1014.8
20260505053814 -39 27 0.0 0.0 0.00 0.00 0.00 88 1014.8
20260505052311 -39 27 0.0 0.0 0.00 0.00 0.00 88 1014.8
20260505050757 -39 27 0.0 1.7 0.00 0.00 0.00 88 1014.8
20260505040740 -39 11 0.0 1.7 0.00 0.00 0.00 88 1014.5
20260505035953 -39 303 0.0 3.5 0.00 0.00 0.00 88 1014.5
20260505033719 -39 16 0.0 2.6 0.00 0.00 0.00 88 1014.7
20260505032218 -39 35 0.0 2.6 0.00 0.00 0.00 88 1014.7
20260505030712 -39 7 0.0 0.0 0.00 0.00 0.00 88 1014.6
20260505025207 -39 359 0.0 1.7 0.00 0.00 0.00 88 1014.6
20260505024431 -39 359 0.0 0.0 0.00 0.00 0.00 88 1014.8
20260505022154 -39 359 0.0 1.7 0.00 0.00 0.00 88 1014.8
20260505021415 -39 20 0.0 0.0 0.00 0.00 0.00 88 1014.8
20260505015139 -39 20 0.0 3.5 0.00 0.00 0.00 88 1014.6
20260505013633 -39 206 0.0 0.0 0.00 0.00 0.00 88 1014.6
20260505013628 -39 206 0.0 1.7 0.00 0.00 0.00 88 1014.5
20260505010618 -39 206 0.0 0.0 0.00 0.00 0.00 88 1014.3
20260505005107 -39 206 0.0 0.9 0.00 0.00 0.00 88 1014.1
20260505003605 -39 206 0.0 0.0 0.00 0.00 0.00 88 1013.9
20260505002057 -39 206 0.0 0.0 0.00 0.00 0.00 88 1013.8
20260505000556 -39 206 0.0 0.0 0.00 0.00 0.00 88 1013.6
20260504235046 -39 206 0.0 1.7 0.00 0.00 0.00 88 1013.6
20260504233530 -39 207 0.0 1.7 0.00 0.00 0.00 88 1013.6
20260504232031 -39 108 0.0 3.5 0.00 0.00 0.00 88 1013.6
20260504230511 -39 339 0.9 8.7 0.00 0.00 0.00 88 1013.7
20260504230507 -39 31 0.0 3.5 0.00 0.00 0.00 88 1013.6
20260504223500 -39 90 0.9 4.3 0.00 0.00 0.00 88 1013.7
20260504221951 -39 8 1.7 6.1 0.00 0.00 0.00 88 1013.7
20260504220442 -39 287 1.7 5.2 0.00 0.00 0.00 88 1013.9
20260504214937 -39 291 1.7 6.1 0.00 0.00 0.00 88 1013.9
20260504213438 -39 226 1.7 5.2 0.00 0.00 0.00 88 1014.0
20260504211937 -39 26 2.6 9.6 0.00 0.00 0.00 88 1013.9
20260504210439 -39 308 1.7 7.0 0.00 0.00 0.00 88 1013.8
20260504204942 -39 35 1.7 7.8 0.00 0.00 0.00 88 1014.3
20260504204938 -39 10 1.7 7.0 0.00 0.00 0.00 88 1013.9
20260504201939 -39 237 1.7 6.1 0.00 0.00 0.00 88 1014.4
20260504200438 -39 58 1.7 7.8 0.00 0.00 0.00 88 1014.5
20260504194937 -39 19 1.7 7.0 0.00 0.00 0.00 88 1014.7
20260504193439 -39 3 1.7 7.8 0.00 0.00 0.00 88 1014.8
20260504191935 -39 319 1.7 7.8 0.00 0.00 0.00 88 1015.1
20260504191204 -39 17 1.7 6.1 0.00 0.00 0.00 88 1015.1
20260504184932 -39 73 2.6 7.8 0.00 0.00 0.00 88 1015.4
20260504183432 -39 37 1.7 7.8 0.00 0.00 0.00 88 1015.5
20260504181932 -39 269 1.7 7.0 0.00 0.00 0.00 88 1015.8
20260504180433 -39 354 1.7 8.7 0.00 0.00 0.00 88 1016.1
20260504175703 -39 252 1.7 5.2 0.00 0.00 0.00 88 1016.1
20260504174204 -39 21 1.7 7.0 0.00 0.00 0.00 88 1016.4
20260504171933 -39 17 2.6 6.1 0.00 0.00 0.00 88 1016.5
20260504170432 -39 348 2.6 7.0 0.00 0.00 0.00 88 1016.8
20260504160418 -39 52 2.6 7.0 0.00 0.00 0.00 88 1017.6
20260504151147 -39 138 0.9 3.5 0.00 0.00 0.00 88 1017.9
20260504140404 -39 277 1.7 4.3 0.00 0.00 0.00 88 1018.1